Regional Weather Roundup
Issued by NWS

Home | Current Version | Previous Version | Text Only | Print | Product List | Glossary Off
Versions: 1 2 3 4 5 6 7 8 9 10 11 12 13 14 15 16 17 18 19 20 21 22 23 24 25 26 27 28 29 30 31 32 33 34 35 36 37 38 39 40 41 42 43 44 45 46 47 48 49 50

000
ASUS43 KIND 221859
RWRIN

WEATHER ROUNDUP FOR INDIANA
NATIONAL WEATHER SERVICE INDIANAPOLIS IN
300 PM EDT TUE APR 22 2014

NOTE: "FAIR" INDICATES FEW OR NO CLOUDS BELOW 12,000 FEET WITH NO
SIGNIFICANT WEATHER AND/OR OBSTRUCTIONS TO VISIBILITY.

* - STATION DOES NOT REPORT WEATHER SUCH AS PRECIPITATION OR FOG.

+ - STATION NOT QUALITY CONTROLLED BY THE NATIONAL WEATHER SERVICE.
    USE DATA WITH CAUTION...ESPECIALLY DEWPOINT AND RELATIVE
    HUMIDITY OBSERVATIONS.

INZ001>003-010>013-019-020-222000-
NORTHWEST INDIANA

CITY           SKY/WX    TMP DP  RH WIND       PRES   REMARKS
GARY /AIRPORT/ SUNNY     50  30  46 NE12G23   29.98S
LA PORTE +     SUNNY     47  31  52 N14G22    29.97S
MONTICELLO +   SUNNY     54  33  46 N16G22    29.95S
RENSSELAER +   SUNNY     54  32  43 NW10G16   29.96S
VALPARAISO     SUNNY     49  28  44 N14       29.97S

$$

LMZ046-743>745-222000-
SOUTHERN LAKE MICHIGAN

STATION/POSITION TIME  TEMP WIND        PRES
                       AIR  DIR/SP/G
                 (UTC) (F)  (DEG/KT/KT) (MB)
MICHIGAN CITY    1800   43  340/ 11/ 13   N/A

$$

INZ004-005-014>016-021>024-222000-
NORTH CENTRAL INDIANA

CITY           SKY/WX    TMP DP  RH WIND       PRES   REMARKS
ELKHART        MOSUNNY   48  30  49 NW15      29.94
GOSHEN         SUNNY     51  34  52 W21G26    29.91S
SOUTH BEND     MOSUNNY   49  31  49 N23G31    29.96R

$$

INZ006>009-017-018-025>027-222000-
NORTHEAST INDIANA

CITY           SKY/WX    TMP DP  RH WIND       PRES   REMARKS
ANGOLA *+      MOSUNNY   52  36  54 NW20G30   29.85S
FORT WAYNE     MOSUNNY   55  33  43 NW20G29   29.88R

$$

INZ028-029-035-036-043>045-051>053-222000-
WEST CENTRAL INDIANA

CITY           SKY/WX    TMP DP  RH WIND       PRES   REMARKS
GREENCASTLE +  SUNNY     59  36  41 N15       29.93S
LAFAYETTE      SUNNY     56  35  45 N16G22    29.94F
TERRE HAUTE    SUNNY     62  37  39 NW9       29.93F

$$

INZ030>032-037>040-046>048-054>057-064-065-222000-
CENTRAL INDIANA

CITY           SKY/WX    TMP DP  RH WIND       PRES   REMARKS
ANDERSON       SUNNY     57  34  41 NW17G29   29.91S
COLUMBUS       SUNNY     64  32  29 NW16G23   29.90S
INDIANAPOLIS   SUNNY     59  36  42 NW18G25   29.91S
-EAGLE CREEK   SUNNY     58  35  42 NW17G25   29.91S
KOKOMO *+      SUNNY     55  34  44 NW18G28   29.92S
MT COMFORT *+  SUNNY     59  37  44 NW20G25   29.91S
SHELBYVILLE    SUNNY     63  35  35 NW20G25   29.89S

$$

INZ033-034-041-042-049-050-058-059-222000-
EAST CENTRAL INDIANA

CITY           SKY/WX    TMP DP  RH WIND       PRES   REMARKS
MUNCIE         SUNNY     57  37  47 NW20G26   29.89S

$$

INZ060-061-067>069-081>083-085>088-222000-
SOUTHWEST INDIANA

CITY           SKY/WX    TMP DP  RH WIND       PRES   REMARKS
EVANSVILLE     SUNNY     69  41  36 N18G25    29.93S
HUNTINGBURG *+ SUNNY     66  46  48 N15G21    29.92S

$$

INZ062-063-066-070>080-084-089>092-222000-
SOUTH CENTRAL AND SOUTHEAST INDIANA

CITY           SKY/WX    TMP DP  RH WIND       PRES   REMARKS
BLOOMINGTON    SUNNY     65  35  33 N15       29.91S

$$




USA.gov is the U.S. government's official web portal to all federal, state and local government web resources and services.